Date,TemperatureHighF,TemperatureAvgF,TemperatureLowF,DewpointHighF,DewpointAvgF,DewpointLowF,HumidityHigh,HumidityAvg,HumidityLow,PressureMaxIn,PressureMinIn,WindSpeedMaxMPH,WindSpeedAvgMPH,GustSpeedMaxMPH,PrecipitationSumIn
2013-1-1,31,24,8,25,11,-5,78,58,44,29.93,29.69,6,1,22,0.00
2013-1-2,26,14,1,15,3,-11,90,63,47,30.12,29.87,5,0,15,0.00
2013-1-3,20,8,-3,7,-4,-13,82,58,36,30.15,29.96,3,0,9,0.00
2013-1-4,36,25,8,27,16,4,86,69,51,29.95,29.78,7,0,16,0.02
2013-1-5,37,29,18,23,16,8,91,60,41,30.25,29.81,6,0,16,0.05
2013-1-6,39,28,18,30,21,15,87,75,54,30.20,29.92,3,0,9,0.00
2013-1-7,33,26,15,30,17,5,92,71,42,30.39,29.96,2,0,13,0.00
2013-1-8,40,25,13,30,17,9,96,74,40,30.38,30.25,6,0,10,0.00
2013-1-9,40,29,18,38,24,16,100,83,59,30.42,29.97,3,0,17,0.00
2013-1-10,43,36,29,27,21,15,71,55,46,30.55,30.02,7,1,21,0.00
2013-1-11,38,31,23,34,26,21,100,81,56,30.54,30.22,0,0,5,0.16
2013-1-12,40,36,33,40,35,31,100,98,93,30.23,30.13,0,0,0,0.07
2013-1-13,43,38,34,43,38,34,100,100,93,30.17,29.98,0,0,7,0.00
2013-1-14,52,40,33,49,32,16,100,77,45,30.29,29.88,5,0,17,0.01
2013-1-15,38,32,27,30,22,17,95,68,45,30.35,30.24,1,0,7,0.00
2013-1-16,34,31,27,32,29,24,100,92,84,30.25,29.81,0,0,0,0.00
2013-1-17,38,29,22,32,20,5,100,70,44,30.12,29.82,5,0,12,0.17
2013-1-18,22,16,9,6,-4,-12,60,41,30,30.39,30.06,6,0,15,0.00
2013-1-19,41,29,17,22,15,4,66,55,42,30.32,29.85,5,0,15,0.11
2013-1-20,46,33,22,32,18,2,78,54,27,29.93,29.53,10,2,23,0.04
2013-1-21,26,21,15,21,4,-5,92,51,34,30.06,29.79,5,0,17,0.00
2013-1-22,23,16,5,21,6,-10,92,67,34,30.03,29.76,7,0,19,0.01
2013-1-23,12,4,-6,2,-11,-20,86,52,30,30.11,30.02,7,1,17,0.00
2013-1-24,17,5,-8,-6,-14,-21,58,42,29,30.22,30.05,7,2,20,0.00
2013-1-25,20,12,3,8,-7,-12,78,42,27,30.30,30.05,7,0,16,0.00
2013-1-26,21,13,7,11,-1,-14,85,56,29,30.22,30.01,5,0,15,0.00
2013-1-27,28,16,9,2,-5,-14,63,41,21,30.46,30.21,5,0,15,0.00
2013-1-28,27,19,8,22,11,-9,92,72,31,30.45,30.03,0,0,0,0.00
2013-1-29,36,28,17,32,24,16,100,88,72,30.20,30.05,1,0,5,0.19
2013-1-30,45,37,32,45,36,30,100,99,92,30.14,29.42,0,0,3,0.21
2013-1-31,54,40,26,52,28,3,100,66,34,29.55,28.91,10,3,34,0.90
2013-2-1,29,24,18,18,7,0,79,48,33,30.07,29.55,8,1,19,0.00
2013-2-2,26,21,13,7,4,0,69,48,36,30.23,30.02,5,0,12,0.00
2013-2-3,31,23,14,18,12,9,90,65,48,30.03,29.72,3,0,8,0.00
2013-2-4,28,21,14,15,4,-5,73,48,29,29.90,29.71,8,1,21,0.00
2013-2-5,29,19,8,12,4,-6,86,55,31,30.02,29.89,2,0,10,0.00
2013-2-6,34,26,19,28,15,-3,100,64,33,30.31,29.92,7,0,17,0.00
2013-2-7,29,19,10,4,-5,-9,45,34,22,30.53,30.31,2,0,9,0.00
2013-2-8,22,18,15,14,10,-4,87,71,32,30.49,29.81,7,1,15,0.00
2013-2-9,21,15,10,15,8,-5,92,73,48,30.22,29.75,8,2,25,0.00
2013-2-10,35,18,5,12,0,-9,86,47,21,30.41,30.22,7,0,16,0.16
2013-2-11,29,23,12,29,20,8,100,89,70,30.33,29.64,0,0,0,0.00
2013-2-12,42,35,28,31,26,22,100,71,50,29.86,29.61,6,1,16,0.23
2013-2-13,42,33,26,26,21,11,83,63,42,29.87,29.75,3,0,12,0.00
2013-2-14,44,31,25,28,21,8,95,69,37,29.98,29.73,2,0,11,0.00
2013-2-15,49,32,20,37,23,12,95,72,38,29.98,29.88,7,0,14,0.00
2013-2-16,40,32,23,34,22,6,96,67,47,29.98,29.76,3,0,14,0.00
2013-2-17,23,18,12,14,4,-2,85,54,41,29.77,29.45,8,2,25,0.00
2013-2-18,28,18,9,4,-3,-11,58,40,25,30.12,29.69,8,2,22,0.00
2013-2-19,42,28,14,35,15,-4,100,59,31,30.17,29.58,3,0,9,0.13
2013-2-20,34,29,22,34,18,10,100,65,50,29.75,29.55,7,2,20,0.00
2013-2-21,32,23,19,16,11,6,70,59,52,30.25,29.75,7,1,22,0.00
2013-2-22,41,29,18,24,18,13,91,65,40,30.41,30.25,5,0,13,0.00
2013-2-23,36,32,27,33,27,19,100,83,68,30.33,29.96,0,0,0,0.04
2013-2-24,38,33,31,36,31,29,100,93,86,29.96,29.76,3,0,9,0.17
2013-2-25,38,31,26,37,30,24,100,94,74,30.24,29.91,1,0,8,0.28
2013-2-26,42,35,30,39,31,26,100,87,66,30.35,30.19,5,0,9,0.01
2013-2-27,35,32,31,33,29,24,95,88,74,30.20,29.66,5,0,11,0.10
2013-2-28,42,34,31,36,30,28,96,86,70,29.65,29.56,0,0,0,1.40
2013-3-1,40,34,31,36,28,22,100,80,63,29.71,29.56,3,0,13,0.28
2013-3-2,41,33,30,29,24,18,84,70,56,29.70,29.65,3,0,14,0.05
2013-3-3,40,33,28,36,27,21,92,79,63,29.67,29.59,3,0,10,0.02
2013-3-4,37,30,26,28,22,17,86,70,63,29.79,29.63,6,1,18,0.00
2013-3-5,45,34,26,30,23,18,84,67,50,30.10,29.79,3,0,13,0.00
2013-3-6,38,34,31,32,27,22,88,77,61,30.19,30.08,12,1,21,0.06
2013-3-7,35,31,29,30,26,22,92,80,66,30.17,30.07,7,0,14,0.06
2013-3-8,40,33,29,29,22,7,92,66,29,30.22,30.03,2,0,9,0.14
2013-3-9,52,35,25,30,18,-6,96,57,13,30.38,30.21,2,0,9,0.00
2013-3-10,51,35,22,35,27,19,96,75,54,30.42,30.28,2,0,7,0.00
2013-3-11,49,39,33,38,31,22,95,73,49,30.31,30.14,5,0,13,0.00
2013-3-12,44,39,36,43,38,32,100,96,82,30.15,29.73,0,0,6,0.68
2013-3-13,48,37,29,40,27,14,100,68,42,29.80,29.73,5,0,14,0.00
2013-3-14,35,28,19,28,16,4,92,62,42,29.84,29.71,7,1,20,0.00
2013-3-15,40,26,16,29,11,1,92,55,29,29.86,29.62,6,0,15,0.00
2013-3-16,37,29,21,25,12,5,84,51,34,29.89,29.70,5,0,12,0.00
2013-3-17,35,24,16,18,6,-4,84,49,27,30.33,29.89,6,0,17,0.00
2013-3-18,39,25,8,20,2,-5,79,41,19,30.46,30.23,2,0,7,0.00
2013-3-19,32,29,25,31,26,18,100,89,63,30.23,29.71,5,0,15,0.01
2013-3-20,38,28,21,24,18,8,96,68,47,29.79,29.70,6,0,16,0.28
2013-3-21,44,27,13,21,12,3,95,57,28,29.80,29.60,5,0,12,0.09
2013-3-22,44,31,20,24,19,11,91,63,39,29.74,29.64,5,0,15,0.00
2013-3-23,42,31,22,22,17,12,84,57,38,29.79,29.66,7,1,18,0.00
2013-3-24,46,35,26,26,20,14,71,56,41,29.86,29.75,5,0,14,0.00
2013-3-25,44,34,24,31,24,19,91,69,48,29.81,29.57,5,0,12,0.00
2013-3-26,49,38,31,30,20,6,75,51,28,29.81,29.60,5,0,13,0.00
2013-3-27,51,37,27,31,23,16,88,59,34,29.92,29.78,6,1,15,0.00
2013-3-28,49,39,34,38,30,21,100,71,47,30.05,29.92,5,0,10,0.00
2013-3-29,53,40,33,34,28,22,88,64,39,30.08,30.02,3,0,13,0.00
2013-3-30,55,39,30,35,19,0,88,51,19,30.13,30.03,5,0,12,0.00
2013-3-31,55,40,25,35,21,11,88,53,20,30.14,29.81,7,1,18,0.12
2013-4-1,56,40,30,41,30,4,100,70,30,29.80,29.53,8,1,27,0.43
2013-4-2,37,30,25,20,7,1,53,38,27,29.90,29.78,8,2,22,0.00
2013-4-3,44,32,25,14,5,-5,55,34,16,30.16,29.90,8,2,26,0.00
2013-4-4,54,37,26,14,8,0,50,33,14,30.30,30.01,7,1,15,0.00
2013-4-5,56,41,32,26,17,6,61,39,19,30.01,29.70,6,0,15,0.00
2013-4-6,45,32,25,17,5,-10,51,33,15,30.34,29.92,7,1,17,0.01
2013-4-7,56,39,24,29,20,8,80,50,21,30.34,29.96,8,1,23,0.00
2013-4-8,63,46,33,42,29,12,100,58,24,30.11,29.97,3,0,11,0.00
2013-4-9,64,48,38,51,38,28,100,68,42,30.09,29.92,5,0,15,0.25
2013-4-10,58,48,42,51,42,34,100,82,57,30.03,29.88,2,0,8,0.82
2013-4-11,45,44,42,45,43,42,100,98,93,29.94,29.90,0,0,0,0.05
2013-4-13,53,43,37,48,30,26,100,62,51,29.96,29.81,5,0,10,0.24
2013-4-14,50,40,32,38,28,19,100,65,37,30.24,29.93,6,1,16,0.00
2013-4-15,61,44,28,35,30,26,96,64,32,30.40,30.24,7,0,12,0.00
2013-4-16,67,50,34,48,38,29,82,67,41,30.40,30.05,9,2,25,0.02
2013-4-17,64,51,37,48,29,16,86,46,25,30.37,30.07,6,1,14,0.01
2013-4-18,64,48,31,38,29,22,92,53,26,30.48,30.15,7,1,17,0.00
2013-4-19,73,61,51,60,52,33,93,72,50,30.15,29.62,9,2,27,0.17
2013-4-20,60,48,36,59,33,14,100,61,29,30.25,29.64,9,2,24,0.27
2013-4-21,53,40,31,27,14,2,74,38,16,30.70,30.25,7,1,13,0.00
2013-4-22,57,41,28,35,24,11,95,58,22,30.80,30.64,7,0,16,0.00
2013-4-23,40,37,32,38,34,29,96,88,78,30.64,30.19,3,0,9,0.01
2013-4-24,76,56,39,52,39,24,96,60,21,30.18,29.78,6,1,14,0.00
2013-4-25,63,51,38,47,29,12,86,46,20,30.31,29.78,7,1,24,0.00
2013-4-26,64,46,31,39,29,23,92,55,28,30.45,30.31,3,0,13,0.00
2013-4-27,69,50,33,41,31,22,96,55,23,30.46,30.29,5,0,9,0.00
2013-4-28,73,54,35,42,34,27,91,52,23,30.37,30.20,7,0,10,0.00
2013-4-29,75,56,41,44,35,26,82,47,29,30.30,30.18,7,0,17,0.00
2013-4-30,74,59,47,46,28,15,67,33,16,30.39,30.26,6,0,13,0.00
2013-5-1,76,56,37,47,30,24,88,44,17,30.51,30.39,5,0,12,0.00
2013-5-2,83,58,42,54,37,17,92,52,19,30.53,30.35,6,0,15,0.00
2013-5-3,71,53,39,51,39,32,95,62,37,30.58,30.41,8,0,10,0.00
2013-5-4,75,54,39,53,39,32,100,63,27,30.41,30.27,7,0,11,0.00
2013-5-5,73,52,33,47,36,29,100,61,22,30.37,30.24,6,0,10,0.00
2013-5-6,78,55,34,49,37,20,100,62,15,30.31,30.14,5,0,9,0.00
2013-5-7,83,63,44,61,44,25,100,61,14,30.21,30.08,5,0,9,0.00
2013-5-8,74,62,50,63,55,49,100,81,55,30.24,30.09,5,0,14,0.15
2013-5-9,72,61,56,70,59,55,100,92,77,30.09,29.92,3,0,7,0.15
2013-5-10,80,64,52,59,52,42,100,69,33,30.00,29.92,5,0,10,0.00
2013-5-11,67,61,57,65,58,51,100,90,77,29.93,29.72,6,0,12,0.49
2013-5-12,68,56,44,58,43,17,100,66,32,29.83,29.62,6,1,21,0.02
2013-5-13,55,45,40,30,24,18,57,44,31,30.08,29.83,6,1,26,0.00
2013-5-14,58,46,37,39,27,16,95,52,24,30.10,30.02,5,0,13,0.00
2013-5-15,65,48,31,49,36,21,95,70,23,30.09,29.69,6,0,16,0.17
2013-5-16,78,61,46,57,39,22,100,56,17,29.88,29.66,8,1,21,0.00
2013-5-17,71,56,45,44,36,26,79,51,25,30.26,29.88,5,1,15,0.00
2013-5-18,75,56,38,49,40,26,96,61,20,30.36,30.25,5,0,13,0.00
2013-5-19,68,56,48,56,49,41,100,80,45,30.39,30.23,3,0,7,0.11
2013-5-20,78,64,54,63,57,52,100,81,53,30.23,29.97,3,0,12,0.02
2013-5-21,78,62,50,65,57,46,100,87,62,30.11,29.92,5,0,13,1.00
2013-5-22,63,55,49,60,54,48,100,95,82,30.06,29.93,2,0,6,0.80
2013-5-23,74,60,51,71,59,51,100,96,82,29.96,29.81,3,0,8,0.42
2013-5-24,68,58,46,65,54,40,100,87,64,29.91,29.68,6,0,14,0.20
2013-5-25,49,43,36,48,42,33,100,93,82,29.89,29.79,5,0,13,0.65
2013-5-26,56,45,36,42,35,29,100,70,48,30.12,29.76,7,1,19,0.07
2013-5-27,70,52,37,45,34,20,100,57,23,30.23,30.12,5,0,12,0.00
2013-5-28,75,56,38,49,38,32,100,59,27,30.31,30.18,3,0,7,0.00
2013-5-29,60,56,51,59,54,41,100,93,66,30.21,30.05,0,0,0,0.38
2013-5-30,82,68,56,66,56,46,100,71,37,30.13,30.05,3,0,12,0.00
2013-5-31,91,74,60,66,58,46,100,65,30,30.16,29.96,6,0,10,0.00
2013-6-1,91,76,64,68,60,48,100,63,30,30.01,29.86,3,0,14,0.00
2013-6-2,90,74,65,71,63,42,100,73,35,29.89,29.69,7,1,22,0.62
2013-6-3,79,67,56,68,57,36,100,75,37,29.89,29.79,6,0,13,0.03
2013-6-4,70,57,47,44,39,31,69,51,35,30.15,29.88,5,1,14,0.00
2013-6-5,76,60,45,53,40,27,96,57,22,30.25,30.12,3,0,9,0.00
2013-6-6,73,60,48,54,48,39,96,68,38,30.26,30.13,2,0,10,0.02
2013-6-7,57,52,49,54,50,45,96,93,74,30.16,29.92,1,0,6,1.66
2013-6-8,75,60,50,61,54,48,100,81,57,30.05,29.75,5,0,12,0.74
2013-6-9,77,64,54,60,50,38,100,66,38,30.22,30.06,5,0,10,0.00
2013-6-10,71,60,51,59,55,50,100,85,58,30.25,30.06,1,0,6,0.27
2013-6-11,58,56,53,57,53,49,100,93,75,30.06,29.64,0,0,6,1.46
2013-6-12,67,58,54,56,50,41,100,74,52,29.88,29.62,6,1,15,0.07
2013-6-13,63,55,49,57,51,44,100,86,54,29.87,29.76,1,0,5,0.25
2013-6-14,73,59,50,58,49,36,100,73,33,29.85,29.74,6,0,10,0.14
2013-6-15,78,62,50,59,43,31,100,57,25,29.99,29.85,3,0,10,0.00
2013-6-16,72,62,52,60,52,44,96,73,39,29.98,29.75,3,0,10,0.00
2013-6-17,82,65,55,65,56,35,100,77,36,29.95,29.82,6,0,16,0.10
2013-6-18,64,58,53,60,54,49,100,87,70,30.03,29.94,0,0,5,0.01
2013-6-19,75,60,50,61,46,30,100,65,29,30.20,29.98,2,0,12,0.00
2013-6-20,78,62,45,57,45,34,96,61,25,30.32,30.20,2,0,12,0.00
2013-6-21,83,66,53,61,51,40,96,64,29,30.30,30.23,5,0,10,0.00
2013-6-22,82,68,55,68,58,51,96,71,43,30.27,30.12,5,0,10,0.00
2013-6-23,87,73,63,73,65,56,100,78,51,30.19,29.98,6,0,12,0.06
2013-6-24,89,75,67,71,65,53,100,76,37,30.05,29.91,5,0,10,0.00
2013-6-25,88,74,66,72,65,52,100,75,43,29.98,29.77,5,0,13,0.21
2013-6-26,77,69,64,72,67,64,100,94,73,29.89,29.77,0,0,5,0.16
2013-6-27,76,67,62,71,65,60,100,93,77,29.91,29.82,5,0,7,0.01
2013-6-28,67,62,56,66,60,54,100,95,84,29.82,29.55,0,0,6,3.33
2013-6-29,82,70,63,71,63,57,100,80,54,29.75,29.56,5,0,13,0.34
2013-6-30,83,72,65,71,66,60,100,82,52,29.97,29.75,3,0,10,0.16
2013-7-1,75,70,66,73,68,64,100,94,73,30.11,29.97,1,0,5,0.31
2013-7-2,79,69,62,77,68,61,100,97,87,30.27,30.10,3,0,11,1.70
2013-7-3,84,71,61,77,65,60,100,85,55,30.25,30.15,3,0,11,0.54
2013-7-4,89,76,68,72,66,58,100,74,46,30.25,30.11,5,0,12,0.00
2013-7-5,91,78,70,74,66,58,96,69,45,30.20,30.07,5,0,11,0.00
2013-7-6,86,76,68,73,64,53,96,70,48,30.12,30.03,5,0,10,0.00
2013-7-7,88,74,65,74,65,57,100,77,44,30.08,29.94,2,0,8,0.01
2013-7-8,86,73,65,78,70,63,100,91,69,30.12,29.96,2,0,8,0.44
2013-7-9,74,68,64,69,65,61,100,90,73,30.17,30.10,1,0,6,0.00
2013-7-10,81,70,66,78,69,63,100,95,83,30.12,29.83,0,0,5,0.54
2013-7-11,80,71,65,73,66,57,100,86,60,30.02,29.80,2,0,8,0.03
2013-7-12,81,68,60,62,57,52,93,70,48,30.27,30.02,3,0,9,0.00
2013-7-13,79,68,58,64,59,53,96,76,57,30.37,30.27,0,0,3,0.00
2013-7-14,84,74,66,72,65,58,100,76,53,30.36,30.25,1,0,7,0.00
2013-7-15,89,75,66,70,64,51,100,71,42,30.27,30.16,3,0,10,0.00
2013-7-16,90,76,67,70,64,56,96,69,39,30.22,30.17,3,0,10,0.00
2013-7-17,91,77,66,71,65,56,100,69,42,30.23,30.02,3,0,9,0.00
2013-7-18,91,77,69,77,68,62,100,76,48,30.06,29.97,2,0,10,2.57
2013-7-19,91,78,68,75,68,59,100,75,45,29.99,29.74,6,0,14,0.26
2013-7-20,84,73,67,71,64,56,100,75,49,29.86,29.70,3,0,13,0.01
2013-7-21,82,70,62,67,62,57,100,77,54,30.05,29.86,1,0,7,0.00
2013-7-22,75,68,63,69,64,62,100,89,69,30.10,29.95,1,0,7,0.05
2013-7-23,72,66,63,68,64,61,100,93,73,29.94,29.59,0,0,3,3.12
2013-7-24,79,68,56,70,60,46,100,77,55,30.04,29.64,3,0,12,0.00
2013-7-25,73,62,51,58,51,44,83,69,52,30.16,30.04,3,0,12,0.00
2013-7-26,71,63,60,69,60,53,100,89,65,30.13,30.00,3,0,10,0.22
2013-7-27,82,68,56,61,55,46,100,67,35,30.11,30.01,3,0,8,0.00
2013-7-28,70,70,70,56,56,55,62,61,59,30.07,29.99,0,0,0,0.07
2013-7-29,83,72,64,76,61,56,96,70,56,30.11,29.99,2,0,9,0.00
2013-7-30,80,67,57,65,55,42,100,71,38,30.17,30.08,2,0,8,0.00
2013-7-31,81,67,56,61,55,45,100,70,38,30.20,30.07,0,0,6,0.00
2013-8-1,79,65,57,65,58,51,100,80,50,30.10,29.91,3,0,8,0.59
2013-8-2,80,68,61,69,58,43,100,75,36,29.91,29.83,3,0,13,0.03
2013-8-3,80,66,58,62,54,43,100,70,39,29.91,29.81,5,0,10,0.00
2013-8-4,76,63,55,58,52,45,96,71,46,29.95,29.85,5,0,13,0.00
2013-8-5,75,61,52,52,45,30,83,57,44,30.11,29.94,3,0,13,0.00
2013-8-6,78,61,47,57,41,26,72,48,38,30.20,30.11,1,0,6,0.00
2013-8-7,80,65,52,61,53,46,96,68,40,30.24,30.12,2,0,7,0.00
2013-8-8,82,71,63,70,62,55,90,76,56,30.15,30.02,3,0,10,0.00
2013-8-9,75,70,66,74,69,66,100,95,87,30.04,29.77,1,0,9,1.43
2013-8-10,79,67,58,67,54,35,100,66,32,30.08,29.84,3,0,12,0.00
2013-8-11,78,63,52,59,51,38,100,70,36,30.14,30.05,2,0,9,0.00
2013-8-12,80,65,54,62,54,47,100,72,40,30.08,29.96,2,0,8,0.00
2013-8-13,72,64,59,67,61,57,100,89,78,29.98,29.74,1,0,5,0.35
2013-8-14,72,61,53,64,50,41,100,70,44,30.01,29.72,5,0,14,0.00
2013-8-15,75,60,50,54,47,38,96,65,38,30.15,30.01,3,0,11,0.00
2013-8-16,77,61,50,60,46,36,93,60,37,30.24,30.15,1,0,8,0.00
2013-8-17,79,64,51,59,52,42,100,70,36,30.33,30.24,2,0,5,0.00
2013-8-18,75,64,55,62,56,50,100,77,50,30.32,30.13,0,0,0,0.00
2013-8-19,78,66,56,63,56,45,100,75,43,30.13,29.99,1,0,10,0.00
2013-8-20,83,69,59,64,58,46,100,73,37,30.16,30.04,2,0,6,0.00
2013-8-21,85,70,59,64,58,50,96,71,37,30.21,30.06,1,0,8,0.00
2013-8-22,85,72,61,66,60,50,100,71,37,30.08,29.85,2,0,12,0.15
2013-8-23,76,66,58,62,50,35,86,60,33,30.20,29.87,3,0,10,0.00
2013-8-24,77,61,48,54,47,33,96,67,29,30.39,30.20,1,0,6,0.00
2013-8-25,80,63,48,59,50,41,100,69,29,30.43,30.21,3,0,10,0.00
2013-8-26,75,67,60,67,61,55,100,81,62,30.21,29.93,2,0,9,0.08
2013-8-27,82,71,65,67,62,52,100,75,47,29.95,29.88,3,0,6,0.01
2013-8-28,83,71,63,77,65,57,100,84,49,30.06,29.89,1,0,7,1.30
2013-8-29,66,64,63,65,62,58,100,93,81,30.14,30.00,1,0,7,0.28
2013-8-31,78,72,67,71,68,63,100,87,78,30.12,29.80,2,0,7,0.28
2013-9-1,83,71,67,71,66,58,100,86,62,29.92,29.83,1,0,6,0.84
2013-9-2,75,70,66,75,69,63,100,97,88,29.91,29.76,3,0,8,0.79
2013-9-3,72,66,58,67,61,50,100,85,64,29.87,29.75,3,0,10,0.03
2013-9-4,77,64,55,59,52,42,100,70,36,29.95,29.86,2,0,10,0.00
2013-9-5,70,59,47,59,47,27,100,69,30,30.22,29.90,2,0,10,0.00
2013-9-6,69,53,40,49,41,31,100,70,33,30.30,30.12,3,0,7,0.00
2013-9-7,75,60,47,59,48,38,100,70,30,30.12,29.88,2,0,10,0.00
2013-9-8,68,59,46,57,46,30,89,63,38,30.15,29.79,3,0,14,0.00
2013-9-9,68,53,40,50,42,37,100,71,37,30.29,30.14,2,0,11,0.00
2013-9-10,72,62,52,67,59,45,96,88,81,30.17,30.07,1,0,7,0.06
2013-9-11,88,74,66,76,66,58,100,79,44,30.11,29.95,6,0,18,0.35
2013-9-12,80,69,65,75,67,62,100,94,73,29.98,29.71,5,0,9,1.32
2013-9-13,70,64,56,68,59,51,100,86,65,29.83,29.66,3,0,13,0.20
2013-9-14,66,56,49,51,48,44,96,76,57,30.10,29.83,2,0,12,0.00
2013-9-15,69,55,44,53,46,33,100,77,33,30.21,30.07,0,0,0,0.00
2013-9-16,66,55,43,56,47,32,96,77,50,30.32,30.05,3,0,10,0.02
2013-9-17,65,49,38,46,38,30,100,72,36,30.49,30.32,2,0,9,0.00
2013-9-18,72,53,39,53,43,29,100,74,30,30.38,30.17,2,0,7,0.00
2013-9-19,76,58,45,57,48,37,100,75,33,30.21,30.08,1,0,5,0.00
2013-9-20,77,60,48,57,51,45,100,76,45,30.16,30.03,0,0,5,0.00
2013-9-21,73,62,50,62,56,50,100,83,55,30.05,29.74,5,0,13,0.00
2013-9-22,68,60,49,62,51,38,100,75,45,29.88,29.63,3,0,12,0.68
2013-9-23,60,49,42,41,37,32,76,64,47,30.05,29.88,5,0,13,0.00
2013-9-24,66,52,43,44,38,33,79,62,39,30.04,29.88,2,0,12,0.00
2013-9-25,69,55,46,50,45,40,100,72,48,30.04,29.93,2,0,9,0.00
2013-9-26,68,56,46,49,45,38,92,69,41,30.19,30.03,1,0,8,0.00
2013-9-27,67,56,50,52,48,39,100,77,48,30.32,30.19,0,0,3,0.00
2013-9-28,72,55,45,55,46,35,100,76,34,30.40,30.32,1,0,6,0.00
2013-9-29,70,54,44,59,48,41,100,81,46,30.31,30.16,0,0,0,0.00
2013-9-30,71,53,40,59,46,34,100,81,42,30.17,30.01,1,0,6,0.00
2013-10-1,74,57,44,58,48,40,100,78,34,30.05,29.91,2,0,9,0.00
2013-10-2,76,62,51,59,53,45,100,76,45,30.00,29.88,5,0,13,0.00
2013-10-3,74,60,49,57,49,35,100,72,31,30.16,30.00,0,0,6,0.00
2013-10-4,63,55,47,56,51,45,100,86,56,30.17,30.10,0,0,0,0.04
2013-10-5,64,58,56,56,49,41,96,74,55,30.18,30.11,0,0,0,0.00
2013-10-6,58,52,48,56,48,36,100,89,57,30.30,30.16,0,0,0,0.49
2013-10-7,70,57,51,64,55,46,100,94,73,30.19,29.78,7,0,25,0.83
2013-10-8,63,51,39,47,38,22,92,64,33,30.44,29.95,3,0,13,0.00
2013-10-9,61,45,34,48,38,30,100,79,39,30.55,30.42,0,0,3,0.00
2013-10-10,59,48,36,54,43,36,100,84,49,30.42,30.24,0,0,0,0.00
2013-10-11,68,53,42,57,46,39,100,81,42,30.23,30.16,0,0,6,0.00
2013-10-12,54,50,44,51,47,42,100,92,81,30.45,30.22,0,0,0,0.01
2013-10-13,58,49,40,52,45,40,100,88,63,30.49,30.42,0,0,3,0.00
2013-10-14,67,51,37,53,44,37,100,80,48,30.42,30.25,0,0,5,0.00
2013-10-15,62,56,51,54,50,46,96,81,64,30.32,30.22,0,0,0,0.00
2013-10-16,62,54,47,54,49,39,100,85,48,30.22,29.95,0,0,0,0.00
2013-10-17,71,56,48,62,47,31,100,77,32,29.94,29.75,2,0,12,0.01
2013-10-18,63,54,44,54,45,32,100,75,46,29.94,29.63,6,0,16,0.22
2013-10-19,64,50,38,45,39,32,96,67,36,30.00,29.77,6,0,11,0.00
2013-10-20,58,49,40,47,35,23,100,62,35,30.05,29.71,5,0,15,0.02
2013-10-21,64,48,34,44,37,31,96,69,34,30.13,29.99,5,0,14,0.00
2013-10-22,58,49,40,56,42,26,92,79,56,29.99,29.75,5,0,10,0.00
2013-10-23,53,43,32,41,32,22,96,71,38,29.83,29.62,7,0,11,0.00
2013-10-24,47,42,35,39,27,22,85,57,39,29.91,29.68,6,1,16,0.00
2013-10-25,47,38,30,38,26,17,96,66,38,30.15,29.91,6,0,17,0.00
2013-10-26,49,40,29,38,27,21,96,65,35,30.15,29.88,6,0,14,0.00
2013-10-27,53,44,34,35,28,19,78,54,37,30.07,29.80,5,0,14,0.00
2013-10-28,55,40,30,36,28,15,96,66,44,30.38,30.07,7,0,15,0.00
2013-10-29,48,34,24,29,20,1,96,64,23,30.50,30.38,0,0,7,0.00
2013-10-30,49,36,28,34,28,21,96,73,49,30.39,30.22,3,0,13,0.01
2013-10-31,57,42,30,57,40,29,100,94,82,30.27,29.78,2,0,9,0.25
2013-11-1,65,58,48,60,52,42,100,82,60,29.77,29.42,10,2,22,0.44
2013-11-2,62,49,39,48,40,31,100,77,37,29.80,29.63,7,0,9,0.08
2013-11-3,44,36,29,42,21,7,100,57,30,30.45,29.80,6,1,14,0.00
2013-11-4,43,31,24,27,18,1,88,64,27,30.72,30.45,5,0,8,0.00
2013-11-5,48,35,24,32,25,18,91,71,40,30.73,30.50,3,0,11,0.00
2013-11-6,57,46,35,43,36,30,91,71,47,30.51,30.02,6,1,16,0.00
2013-11-7,57,50,37,55,43,28,93,77,64,30.03,29.72,5,0,12,0.12
2013-11-8,44,36,28,39,26,18,93,67,46,30.08,29.85,5,0,17,0.00
2013-11-9,43,36,29,29,20,13,75,52,37,30.21,30.03,3,0,12,0.00
2013-11-10,44,38,32,41,34,22,100,84,61,30.03,29.75,5,0,17,0.06
2013-11-11,49,40,34,29,23,17,69,51,32,30.11,29.88,6,1,16,0.00
2013-11-12,42,32,25,31,17,10,81,55,44,30.19,29.89,6,0,15,0.00
2013-11-13,33,26,21,13,10,3,64,50,35,30.31,30.12,5,0,14,0.00
2013-11-14,47,34,26,28,20,12,92,59,38,30.12,30.05,7,0,15,0.00
2013-11-15,54,38,28,41,26,11,91,68,23,30.21,30.12,3,0,12,0.00
2013-11-16,57,41,32,35,29,14,88,65,24,30.34,30.19,0,0,8,0.00
2013-11-17,43,38,30,43,37,28,100,95,85,30.34,29.87,0,0,0,0.17
2013-11-18,60,50,40,55,39,23,100,71,34,29.87,29.53,6,0,18,0.39
2013-11-19,43,35,28,30,17,11,61,47,38,30.32,29.68,6,1,18,0.00
2013-11-20,38,29,24,20,11,2,80,48,27,30.64,30.32,5,0,16,0.00
2013-11-21,44,31,18,26,16,2,88,60,19,30.66,30.37,6,0,12,0.00
2013-11-22,41,38,34,40,35,25,100,91,72,30.37,29.82,0,0,5,0.21
2013-11-23,41,34,25,41,22,8,100,62,34,29.95,29.77,6,1,18,0.00
2013-11-24,26,20,15,23,0,-10,87,43,31,30.19,29.79,9,3,30,0.00
2013-11-25,30,22,13,12,-4,-13,51,33,18,30.37,30.19,6,0,16,0.00
2013-11-26,36,31,27,30,22,10,95,69,48,30.32,30.08,5,0,10,0.01
2013-11-27,42,36,31,42,35,25,100,94,71,30.08,29.28,7,0,17,0.39
2013-11-28,34,26,16,26,10,-2,75,52,31,30.42,29.46,7,2,21,0.00
2013-11-29,29,20,13,15,6,-2,87,60,28,30.74,30.41,6,0,10,0.00
2013-11-30,30,20,6,17,10,2,87,67,42,30.80,30.42,5,0,9,0.00
2013-12-1,36,32,27,35,28,16,100,84,62,30.41,30.05,1,0,6,0.00
2013-12-2,40,35,32,37,34,30,100,95,85,30.05,29.94,0,0,0,0.00
2013-12-3,47,35,29,42,30,17,100,84,44,29.97,29.89,2,0,9,0.00
2013-12-4,42,32,27,30,24,17,95,74,50,30.21,29.97,6,0,11,0.00
2013-12-5,36,34,27,36,32,25,100,93,77,30.23,29.92,0,0,0,0.05
2013-12-6,44,39,32,44,35,22,100,85,61,30.17,29.88,5,0,9,0.08
2013-12-7,35,31,22,34,22,10,96,72,46,30.44,30.09,5,0,13,0.06
2013-12-8,29,26,20,22,16,9,87,68,46,30.57,30.44,3,0,10,0.00
2013-12-9,31,27,23,31,24,10,100,87,56,30.50,29.87,2,0,7,0.00
2013-12-10,34,27,16,31,24,8,96,87,70,29.96,29.80,1,0,10,0.00
2013-12-11,30,22,14,19,12,6,95,67,46,30.16,29.96,6,0,22,0.06
2013-12-12,22,16,9,17,3,-7,87,58,33,30.26,30.00,5,1,16,0.00
2013-12-13,26,15,4,21,7,-7,84,71,57,30.40,29.94,5,0,14,0.00
2013-12-14,15,9,3,8,-3,-10,83,59,37,30.58,30.21,0,0,0,0.00
2013-12-15,30,19,11,27,15,8,91,83,74,30.21,29.46,5,0,16,0.00
2013-12-16,25,17,6,18,5,-6,91,62,34,30.18,29.70,7,1,17,0.03
2013-12-17,15,6,-8,11,0,-13,87,75,54,30.26,30.00,2,0,6,0.00
2013-12-18,33,21,12,21,14,8,91,75,53,30.03,29.91,5,0,12,0.13
2013-12-19,38,28,20,27,19,12,91,72,47,30.10,29.95,6,0,12,0.09
2013-12-20,40,34,28,35,28,23,96,82,64,30.12,29.92,1,0,7,0.09
2013-12-21,49,38,34,43,36,32,100,90,67,29.95,29.86,2,0,8,0.08
2013-12-22,38,35,32,38,34,31,100,98,93,30.04,29.80,0,0,5,0.16
2013-12-23,35,33,31,35,32,30,100,98,92,30.13,29.99,0,0,0,0.49
2013-12-24,33,28,18,32,16,5,96,63,48,30.20,30.07,7,1,15,0.00
2013-12-25,22,16,8,13,2,-5,70,55,38,30.50,30.20,6,0,15,0.00
2013-12-26,27,20,14,23,16,6,100,83,67,30.47,30.09,0,0,0,0.00
2013-12-27,31,23,16,27,16,11,96,76,53,30.25,30.17,6,0,12,0.07
2013-12-28,41,29,18,33,23,14,95,77,52,30.19,29.97,5,0,12,0.09
2013-12-29,37,32,27,36,31,25,100,94,78,30.04,29.55,0,0,0,0.35
2013-12-30,36,26,9,34,20,0,100,76,54,30.17,29.57,6,0,13,0.11
2013-12-31,22,13,2,12,3,-6,91,65,41,30.17,30.01,1,0,9,0.01
2014-1-1,24,13,2,12,4,-4,87,67,47,30.37,30.14,6,0,15,0.00
2014-1-2,15,9,0,9,3,-6,85,77,71,30.36,29.92,6,0,10,0.00